Regional Weather Roundup
Issued by NWS

Home | Current Version | Previous Version | Graphics & Text | Print | Product List | Glossary Off
Versions: 1 2 3 4 5 6 7 8 9 10 11 12 13 14 15 16 17 18 19 20 21 22 23 24 25 26 27 28 29 30 31 32 33 34 35 36 37 38 39 40 41 42 43 44 45 46 47 48 49 50

000
ASUS43 KLSX 270410
RWRMO

WEATHER SUMMARY FOR MISSOURI
NATIONAL WEATHER SERVICE SPRINGFIELD MO
1100 PM CDT THU APR 26 2018

NOTE: "FAIR" INDICATES FEW OR NO CLOUDS BELOW 12,000 FEET WITH NO
       SIGNIFICANT WEATHER AND/OR OBSTRUCTIONS TO VISIBILITY.
       CURRENT SKY AND/OR WEATHER CONDITIONS ARE NOT AVAILABLE FOR
       CHILLICOTHE AND FARMINGTON.

MOZ001>031-035>038-043-044-053-054-270500-
...NORTHERN AND WESTERN MISSOURI...

CITY           SKY/WX    TMP DP  RH WIND       PRES   REMARKS
KANSAS CTY INT PTCLDY    58  42  55 N10       29.99R
KANSAS C DTWN  PTCLDY    55  43  63 NW6       29.97R
LEE`S SUMMIT   PTCLDY    58  41  53 SW5       29.97S
ST JOSEPH      CLEAR     57  34  41 N15       30.02R
CHILLICOTHE      N/A     58  41  53 N6        29.97R
KIRKSVILLE     PTCLDY    57  38  48 N9        29.93R

$$
MOZ066>068-077>081-088>096-101>105-270500-
...SOUTHWEST MISSOURI...

CITY           SKY/WX    TMP DP  RH WIND       PRES   REMARKS
SPRINGFIELD    CLOUDY    55  47  74 W6        29.99S
JOPLIN         CLOUDY    53  47  79 S5        30.02S
BRANSON        PTCLDY    54  48  82 CALM      30.02R

$$
MOZ032>034-039>042-045>050-055>058-069>072-270500-
...CENTRAL MISSOURI...

CITY           SKY/WX    TMP DP  RH WIND       PRES   REMARKS
COLUMBIA       CLEAR     56  42  59 W6        29.94S
JEFFERSON CITY CLEAR     56  44  64 CALM      29.94S
ROLLA          CLEAR     54  41  61 W8        29.96S
SEDALIA        CLEAR     55  47  74 SW7       29.96F
WHITEMAN AFB   PTCLDY    55  45  68 SW6       29.92S
WARRENSBURG    CLEAR     54  43  66 SW6       29.96F
OSAGE BEACH    PTCLDY    57  46  66 W3        29.97F

$$
MOZ051-052-059>065-270500-
...EAST CENTRAL MISSOURI...

CITY           SKY/WX    TMP DP  RH WIND       PRES   REMARKS
ST LOUIS INTL  PTCLDY    59  40  49 W5        29.90F
SPIRIT OF STL  CLEAR     48  42  80 SW6       29.90S
ST CHARLES     CLEAR     54  41  61 W3        29.89F

$$
MOZ072>076-082>087-097>100-106>115-270500-
...SOUTH CENTRAL AND SOUTHEAST MISSOURI...

CITY           SKY/WX    TMP DP  RH WIND       PRES   REMARKS
CAPE GIRARDEAU FAIR      53  48  83 W5        29.91S
FARMINGTON     CLOUDY    56  47  71 W6        29.93F
POPLAR BLUFF   FAIR      52  49  89 CALM      29.93S
WEST PLAINS    CLEAR     56  46  69 NW6       29.98S

$$




USA.gov is the U.S. government's official web portal to all federal, state and local government web resources and services.